This is the latest recevied weather packets stored in our database for station/object N0MPM-4. If no packets are shown the sender has not sent any weather packets the latest 10 day(s).
| Time | Temp. | Humidity | Pressure | Rain* | Wind** | Luminosity | Snow |
|---|---|---|---|---|---|---|---|
| 1787533101 | 22.78° C | 72% | 1017 hPa | 0 mm | - | - | - |
| 1787532801 | 23.33° C | 69% | 1017 hPa | 0 mm | - | - | - |
| 1787532742 | 23.33° C | 69% | 1017 hPa | 0 mm | - | - | - |
| 1787532501 | 23.89° C | 67% | 1016.9 hPa | 0 mm | - | - | - |
| 1787532382 | 24.44° C | 65% | 1016.9 hPa | 0 mm | - | - | - |
| 1787532201 | 24.44° C | 65% | 1016.8 hPa | 0 mm | - | - | - |
| 1787532022 | 24.44° C | 65% | 1016.8 hPa | 0 mm | - | - | - |
| 1787531901 | 25° C | 65% | 1016.8 hPa | 0 mm | - | - | - |
| 1787531662 | 25° C | 66% | 1016.7 hPa | 0 mm | - | - | - |
| 1787531601 | 25.56° C | 66% | 1016.8 hPa | 0 mm | - | - | - |
| 1787531301 | 25.56° C | 66% | 1016.7 hPa | 0 mm | - | - | - |
| 1787531001 | 25.56° C | 67% | 1016.7 hPa | 0 mm | - | - | - |
| 1787530943 | 25.56° C | 67% | 1016.7 hPa | 0 mm | - | - | - |
| 1787530701 | 25.56° C | 66% | 1016.8 hPa | 0 mm | - | - | - |
| 1787530582 | 25.56° C | 66% | 1016.8 hPa | 0 mm | - | - | - |
| 1787530401 | 26.11° C | 66% | 1016.8 hPa | 0 mm | - | - | - |
| 1787530222 | 26.11° C | 64% | 1016.8 hPa | 0 mm | - | - | - |
| 1787530101 | 26.11° C | 64% | 1016.8 hPa | 0 mm | - | - | - |
| 1787529862 | 26.67° C | 65% | 1016.8 hPa | 0 mm | - | - | - |
| 1787529801 | 26.67° C | 65% | 1016.8 hPa | 0 mm | - | - | - |
| 1787529501 | 26.11° C | 60% | 1016.8 hPa | 0 mm | - | - | - |
| 1787529201 | 26.11° C | 60% | 1016.8 hPa | 0 mm | - | - | - |
| 1787529142 | 26.11° C | 60% | 1016.9 hPa | 0 mm | - | - | - |
| 1787528901 | 26.11° C | 63% | 1016.9 hPa | 0 mm | - | - | - |
| 1787528782 | 26.11° C | 62% | 1017 hPa | 0 mm | - | - | - |
* Rain latest hour (hover to see other rain measurements)
** Current wind speed in m/s (hover to see current wind gust speed)